Location: Montreal
(45.5087°N, 73.5540°W)
Time: 04:43:04
(UTC-04:00)

Envisat - Visible Passes

Search period start: 20 April 2019 00:00
Search period end: 30 April 2019 00:00
Orbit: 764 x 766 km, 98.2° (Epoch: 19 April)

Date Brightness Start Highest point End Pass type
(mag) Time Alt. Az. Time Alt. Az. Time Alt. Az.
22 Apr 5.6 20:30:45 10° SW 20:34:41 22° W 20:38:38 10° NW visible
24 Apr 5.9 20:58:14 10° WSW 21:00:31 13° W 21:02:49 10° WNW visible
25 Apr 5.2 20:19:03 10° SSW 20:23:21 28° W 20:27:42 10° NW visible
27 Apr 5.8 20:46:00 10° SW 20:49:09 16° W 20:52:20 10° NW visible
